#timestamp,LO_Frequency,Hit,StdDev 
1632002415.1,286046998.7,N
1632002435.8,286046996.9,N
1632002455.7,286046997.0,N
1632002475.5,286046999.1,N
1632002495.3,286046996.7,N
1632002515.2,286046998.0,N
1632002535.0,286046997.7,N
1632002565.9,286046997.1,E
1632002575.9,286047000.9,N
1632002595.7,286046998.6,P
1632002615.5,286046998.6,N
1632002635.4,286046998.9,N
1632002655.2,286046998.9,N
1632002675.0,286046998.6,N
1632002675.9,286047000.8,N
1632002695.8,286046999.3,N
1632002715.6,286046998.3,N
1632002735.4,286047000.6,N
1632002755.3,286046999.1,N
1632002775.1,286046996.8,Y
1632002776.0,286046999.5,P
1632002795.8,286046998.5,P
1632002815.7,286046998.4,P
1632002835.5,286046998.2,Y
1632002855.3,286046998.7,P
1632002875.2,286047001.0,P
1632002895.9,286047001.1,N
1632002915.7,286047000.9,N
1632002935.6,286047001.1,N
1632002955.4,286046996.6,Y
1632002975.2,286046996.7,P
1632002995.1,286046999.2,N
1632002996.0,286046999.3,N
1632003015.8,286046998.5,N
1632003035.6,286046998.3,N
1632003055.5,286046999.1,N
1632003075.3,286046999.5,N
1632003095.1,286046998.3,N
1632003115.9,286046998.8,N
1632003135.7,286047001.2,N
1632003155.5,286046998.5,N
1632003175.4,286046998.3,N
1632003195.2,286046998.8,N
1632003215.0,286046998.3,N
1632003215.9,286046998.8,N
1632003235.8,286047000.6,N
1632003255.6,286047001.0,N
1632003275.4,286047001.2,N
1632003295.3,286046998.6,N
1632003315.1,286046998.9,N
1632003335.8,286046998.3,N
1632003355.7,286046998.6,N
1632003375.5,286046999.0,N
1632003395.3,286046998.6,N
1632003415.2,286046998.7,N
1632003435.9,286046998.5,N
1632003455.7,286046998.3,N
1632003475.6,286046998.7,N
1632003495.4,286046999.4,N
1632003515.2,286046998.6,N
1632003535.1,286046998.2,N
1632003536.0,286046998.5,N
1632003555.8,286046998.7,N
1632003575.6,286046998.7,N
1632003595.5,286046996.6,Y
1632003615.3,286046998.1,P
1632003635.1,286047000.6,N
1632003655.9,286046998.2,N
1632003675.7,286047001.1,N
1632003695.5,286046999.9,N
1632003715.4,286046999.9,N
1632003735.2,286047000.6,N
1632003755.0,286047000.3,N
1632003755.9,286047002.7,N
1632003775.8,286047002.3,N
1632003795.6,286046999.9,N
1632003815.4,286047000.4,N
1632003835.3,286047000.9,N
1632003855.1,286047000.4,N
1632003875.8,286047000.5,N
1632003895.7,286047000.6,N
1632003915.5,286047000.5,N
1632003935.3,286047000.0,N
1632003955.2,286047002.3,N
1632003975.9,286047001.0,N
1632003995.7,286046998.5,N
1632004015.6,286047000.0,N
1632004035.4,286047002.1,N
1632004055.2,286047000.6,N
1632004075.1,286047002.7,N
1632004076.0,286046999.9,N
1632004095.8,286047000.5,N
1632004115.6,286047000.8,N
1632004135.5,286046999.9,N
1632004155.3,286046999.9,N
1632004175.1,286046999.8,N
1632004195.9,286047001.2,N
1632004215.7,286047000.8,N
1632004235.5,286047000.6,N
1632004255.4,286047000.0,N
1632004275.2,286047000.7,N
1632004295.0,286047000.0,N
1632004295.9,286047000.1,N
1632004315.8,286047002.2,N
1632004335.6,286047002.3,N
1632004355.4,286047001.3,N
1632004375.3,286047001.7,N
1632004395.1,286047002.2,N
1632004415.8,286047003.9,Y
1632004435.7,286047002.2,P
1632004455.5,286047001.4,N
1632004475.3,286047005.6,P
1632004495.2,286047004.8,N
1632004515.9,286047005.1,N
1632004535.7,286047005.3,N
1632004555.6,286047005.4,N
1632004575.4,286047002.9,N
1632004595.2,286047003.9,N
1632004615.1,286047001.7,N
1632004616.0,286047002.6,N
1632004635.8,286047001.7,N
1632004655.6,286047001.4,N
1632004675.5,286047002.8,N
1632004695.3,286047002.5,N
1632004715.1,286047002.0,N
1632004735.9,286047002.7,N
1632004755.7,286047000.2,N
1632004775.5,286047000.3,N
1632004795.4,286046999.7,N
1632004815.2,286047000.6,N
1632004835.0,286047001.0,N
1632004835.9,286047000.6,N
1632004855.8,286046999.9,N
1632004875.6,286047000.4,N
1632004895.4,286046999.0,N
1632004915.3,286047001.1,N
1632004935.1,286046998.1,N
1632004936.0,286046998.5,N
1632004955.8,286047001.1,N
1632004975.7,286046998.2,N
1632004995.5,286046998.3,N
1632005015.3,286047000.4,N
1632005035.2,286047000.4,N
1632005055.9,286046998.4,N
1632005075.7,286046998.2,N
1632005095.6,286046998.7,N
1632005115.4,286047001.2,N
1632005135.2,286047000.6,N
1632005155.1,286047001.2,N
1632005156.0,286047000.4,N
1632005175.8,286047000.5,N
1632005195.6,286047001.0,N
1632005215.5,286046998.4,N
1632005235.3,286046998.4,N
1632005255.1,286046998.6,N
1632005275.9,286046999.0,N
1632005295.7,286046998.9,N
1632005315.5,286046996.9,N
1632005335.4,286046996.5,N
1632005355.2,286046996.7,N
1632005375.0,286046997.1,N
1632005375.9,286046996.6,N
1632005395.8,286046998.3,N
1632005415.6,286047001.0,N
1632005435.4,286047000.8,N
1632005455.3,286046999.0,N
1632005475.1,286046999.0,N
1632005476.0,286046998.3,N
1632005495.8,286047001.1,N
1632005515.7,286046998.8,N
1632005535.5,286046999.0,N
1632005555.3,286046999.5,N
1632005575.2,286046999.0,N
1632005595.9,286046999.5,N
1632005615.7,286046999.6,N
1632005635.6,286046999.6,N
1632005655.4,286046999.0,N
1632005675.2,286046998.2,N
1632005695.1,286046998.7,N
1632005696.0,286046999.5,N
1632005715.8,286046998.4,N
1632005735.6,286046998.6,N
1632005755.5,286046999.4,N
1632005775.3,286046999.4,N
1632005795.1,286046999.3,N
1632005815.9,286046996.5,Y
1632005835.7,286047000.9,P
1632005855.5,286047000.5,N
1632005875.4,286047001.0,N
1632005895.2,286047000.3,N
1632005915.0,286046998.3,N
1632005915.9,286046999.4,N
1632005935.8,286046998.8,N
1632005955.6,286046998.3,N
1632005975.4,286047000.8,N
1632005995.3,286046998.5,N
